Wind_Speed
9 12 10 9 6 7 10 12 14 15 17 18 17 16 16 15 14 13 11 11 10 9 8 8 7 6 5 4 4 4 5 5 6 6 6 6 6 6 6 6 5 5 6 7 8 8 9 11 12 12 12 13 14 15 17 18 17 17 18 18 17 17 16 16 16 15 14 13 12 11 11 11 10 9 9 8 7 7 6 6 6 6 7 7 6
6 9 10 9 7 6 9 11 13 14 15 17 17 16 16 15 15 14 13 12 11 10 9 8 7 6 5 4 4 4 4 5 5 6 6 6 5 5 5 5 5 5 6 7 7 8 9 11 12 12 12 13 14 16 17 18 17 16 17 17 16 16 15 15 14 14 13 12 11 10 10 9 8 7 6 6 5 5 5 5 5 5 6 6 5
7 8 11 9 8 7 8 10 12 14 14 16 16 16 16 16 15 14 13 13 12 11 9 8 7 6 6 4 4 4 4 4 5 5 5 5 5 5 5 5 5 5 6 7 7 8 9 11 12 12 13 14 15 15 16 16 15 14 15 15 15 14 14 14 13 13 12 11 10 9 9 8 7 7 6 6 6 6 6 6 6 6 6 6 6
9 9 12 10 9 8 8 9 11 13 13 14 15 16 16 16 15 14 14 13 13 12 10 9 8 7 6 5 4 4 4 4 4 4 4 4 4 4 5 4 4 5 5 6 7 8 9 10 12 13 13 14 14 14 14 14 14 12 12 13 13 13 12 12 12 12 11 10 9 9 9 9 8 8 8 8 7 7 7 7 7 7 7 7 7
13 11 13 11 10 9 8 9 10 11 12 13 14 15 15 15 14 14 14 14 13 12 11 10 8 7 7 6 4 4 4 4 4 4 4 4 4 4 4 4 4 5 6 6 7 8 9 10 12 13 13 12 12 12 12 13 12 11 11 12 12 11 10 10 10 10 9 9 9 11 11 10 10 10 9 9 9 9 8 8 8 8 8 8 8
15 13 14 12 10 9 8 9 10 10 11 12 13 14 14 14 14 14 14 14 14 13 12 11 9 8 7 6 5 4 4 4 4 4 3 3 4 4 4 4 4 5 6 6 7 7 8 10 11 12 11 11 11 11 11 11 11 10 10 10 10 9 9 8 8 8 8 9 10 12 11 11 11 11 10 10 10 10 10 9 9 9 9 9 9
16 14 15 14 10 10 8 9 9 10 10 11 12 13 13 13 13 13 13 14 14 13 12 12 11 9 8 7 6 5 5 4 4 3 3 3 4 4 5 5 5 5 6 6 7 7 8 9 10 11 10 9 9 9 9 10 10 9 8 8 8 8 8 7 6 6 7 8 10 11 11 10 11 13 12 11 11 11 10 10 10 9 9 9 9
18 15 16 15 12 10 9 9 9 10 10 10 11 12 12 12 13 12 13 13 13 13 13 12 12 10 9 8 8 7 6 5 4 3 3 3 4 4 5 5 5 5 6 6 7 7 7 8 9 9 9 8 8 8 8 8 9 8 7 6 6 6 6 6 5 5 6 8 10 9 9 10 11 13 14 13 12 11 10 10 9 9 9 9 8
18 16 16 16 13 11 10 9 9 10 10 9 10 11 11 11 12 12 12 12 12 13 13 13 12 11 10 9 9 8 7 6 4 4 3 4 4 4 5 5 5 5 6 6 7 6 6 7 8 8 8 7 7 6 7 7 8 7 6 5 5 5 5 5 5 5 7 8 8 8 8 9 10 11 13 14 13 12 11 10 9 9 9 8 8
18 17 17 17 15 12 11 10 9 10 10 9 10 10 10 11 11 11 11 11 11 12 12 12 13 12 11 11 10 9 8 7 5 4 3 4 4 4 5 5 5 5 6 6 6 6 6 6 7 7 7 6 5 5 5 5 6 6 5 4 4 4 4 4 4 5 6 7 7 7 7 8 9 10 12 13 13 13 12 11 11 10 9 8 8
18 17 17 18 16 14 13 11 10 11 10 9 9 9 10 10 10 10 10 10 10 10 11 12 12 12 12 12 11 10 9 8 6 5 4 4 4 4 5 5 5 5 6 6 6 6 6 6 6 6 6 5 5 4 3 3 4 5 4 3 4 4 4 4 4 5 5 6 7 7 8 8 9 10 11 12 13 13 13 12 12 11 8 7 7
18 19 18 19 18 16 14 12 11 11 11 10 9 9 10 9 9 9 9 9 9 9 9 10 11 12 12 12 12 11 10 9 8 6 5 4 4 4 4 4 5 5 5 6 6 6 6 6 6 5 5 5 4 4 4 3 4 4 4 3 4 4 4 4 5 6 5 6 7 7 8 9 10 11 12 12 12 13 13 13 12 10 8 7 7
18 20 20 19 19 18 15 14 12 12 11 10 10 9 10 9 9 9 8 8 8 8 8 9 10 11 12 12 12 11 11 9 8 8 6 5 4 3 4 4 4 5 5 5 6 6 6 6 6 5 5 4 4 5 4 4 3 3 3 3 4 4 5 5 6 6 6 7 7 7 8 9 10 11 12 12 12 12 12 13 12 11 9 8 7
18 20 21 21 20 19 17 15 14 13 12 12 11 10 10 9 9 8 8 8 7 7 7 7 8 9 10 11 11 11 11 10 9 8 7 6 4 3 3 3 4 4 4 5 5 6 6 6 6 5 5 4 4 4 4 2 2 2 3 3 4 5 6 6 6 6 6 7 7 7 8 9 10 11 12 11 11 12 12 12 12 12 11 9 8
18 20 22 23 21 20 19 17 16 14 14 13 12 11 10 10 9 8 8 7 6 6 6 6 7 8 9 10 10 10 10 10 9 8 8 7 5 4 3 3 3 3 3 4 5 5 6 6 6 5 4 4 4 3 3 3 1 1 2 3 4 6 6 6 6 6 6 7 7 7 8 9 9 11 11 11 11 11 11 11 11 12 12 10 9
18 20 22 24 22 22 20 19 18 16 15 15 14 13 11 10 10 9 9 7 6 5 5 5 6 6 7 8 9 9 10 10 10 9 8 7 6 5 4 3 2 3 3 3 4 4 5 5 5 4 4 3 3 2 2 2 2 2 2 2 3 4 5 6 6 6 7 7 7 7 8 9 9 10 10 11 10 10 11 10 11 11 11 11 10
18 20 23 25 24 23 22 20 20 19 17 16 16 15 13 12 12 11 10 8 7 5 4 4 4 4 4 5 7 8 9 9 10 9 8 7 6 6 5 4 3 2 3 3 3 3 4 4 3 3 2 2 2 1 1 1 1 1 1 0 0 1 2 3 5 6 7 7 8 7 8 9 10 9 10 10 10 10 10 10 10 10 10 10 9
18 21 24 26 25 24 23 22 22 21 19 18 18 17 15 14 14 13 11 9 8 6 5 4 3 3 3 3 5 6 7 8 9 9 8 7 7 6 6 5 4 3 2 2 2 2 2 2 2 1 1 1 1 2 2 2 2 2 2 1 1 1 1 1 3 5 7 7 8 8 8 9 10 9 10 10 9 10 10 10 10 10 10 9 9
18 21 25 28 27 25 25 24 23 22 20 20 19 18 17 16 15 14 13 11 10 8 6 5 4 3 2 2 3 4 6 6 7 8 7 7 7 7 7 6 5 4 3 3 2 1 1 1 1 2 2 3 3 3 3 3 4 4 4 4 3 2 3 4 4 5 6 7 7 8 8 9 9 9 10 10 9 9 10 11 11 10 10 10 9
18 21 25 29 28 26 26 25 25 23 21 21 20 19 19 18 17 16 15 14 12 10 9 7 5 4 3 2 1 2 3 5 5 6 6 6 6 7 7 7 7 6 5 5 4 4 3 3 4 4 4 4 4 4 4 5 5 6 6 5 5 5 5 6 5 5 5 6 7 8 8 9 9 10 10 10 9 10 10 11 11 11 10 10 10
18 22 26 29 29 27 27 27 26 25 23 22 21 20 20 19 18 18 17 16 14 13 11 9 8 6 5 3 3 2 2 3 3 4 5 5 5 6 7 8 8 7 7 7 7 6 6 6 6 6 5 5 5 5 6 6 7 7 7 7 7 6 6 6 6 5 6 7 8 8 10 10 10 10 10 10 10 10 11 12 12 12 10 10 10
19 23 26 29 30 29 27 27 27 25 24 22 22 21 21 20 18 18 18 17 16 15 14 11 10 8 7 5 4 3 2 1 1 2 3 3 3 4 6 7 8 8 8 9 9 9 9 9 9 8 7 7 7 7 7 8 8 8 8 8 7 7 7 6 6 7 7 8 9 10 11 11 11 11 10 10 10 11 12 12 13 12 11 10 10
20 22 26 30 29 29 29 27 28 26 25 24 23 22 21 21 19 19 19 18 18 16 15 13 11 10 9 8 6 5 4 2 1 1 0 1 1 2 5 6 7 7 8 8 9 9 10 10 9 9 9 9 9 9 9 9 9 9 9 9 9 8 8 8 8 8 9 10 10 11 13 13 13 12 11 11 11 12 12 13 13 13 12 11 11
21 22 25 31 30 29 30 28 28 27 26 26 25 24 23 22 21 21 20 19 18 17 16 14 12 11 10 10 8 7 5 5 4 3 2 2 2 1 2 4 4 5 6 7 7 8 8 8 8 8 8 8 8 8 8 9 9 9 9 9 9 9 9 9 9 9 9 10 12 13 14 15 14 13 12 11 12 12 13 13 13 13 13 13 12
23 25 26 31 33 30 30 30 29 28 27 27 26 25 24 23 22 22 21 21 19 18 17 15 14 12 12 11 10 9 7 7 6 5 4 4 4 4 3 3 3 3 4 4 5 5 6 6 6 5 5 5 5 6 6 7 8 8 9 9 9 9 9 9 9 9 10 11 13 15 15 16 16 15 13 12 13 13 13 13 14 13 13 13 13
29 30 32 33 35 31 30 30 29 28 27 27 27 26 25 24 24 23 23 22 21 20 19 17 15 14 13 13 12 10 8 8 8 7 7 7 7 6 6 5 4 3 2 2 2 2 2 2 3 2 3 3 4 4 5 6 7 8 9 9 9 10 9 9 10 10 10 11 13 15 15 16 16 15 14 13 14 14 14 13 13 13 12 14 14
38 36 38 36 35 31 29 30 28 28 27 27 27 26 25 25 25 25 24 24 23 23 21 18 16 15 15 14 13 11 9 9 9 9 9 9 9 9 8 8 7 5 4 4 3 3 2 2 1 1 1 3 4 5 6 6 6 8 9 10 10 10 10 10 10 10 10 11 13 15 15 15 15 15 14 14 15 15 14 13 12 12 13 14 14
41 40 41 37 34 30 29 29 28 27 26 26 27 26 25 26 26 26 26 26 25 24 22 19 17 17 16 16 14 12 11 10 11 11 11 11 11 11 11 11 11 9 7 6 6 5 5 5 4 4 3 4 6 7 7 7 7 8 9 10 11 11 11 11 10 10 10 11 13 15 15 15 14 15 15 15 15 16 15 13 12 12 13 14 14
39 40 40 36 33 30 28 29 28 25 24 25 26 25 24 25 25 26 27 28 27 25 23 21 19 18 18 17 15 14 13 12 13 13 13 12 13 13 13 13 13 12 10 9 9 8 8 7 7 6 5 6 7 8 8 8 7 8 9 11 11 12 12 11 10 10 10 11 13 15 16 15 15 15 16 15 16 15 14 13 13 13 14 14 14
37 39 38 35 33 30 27 28 27 24 23 25 24 23 23 23 25 26 28 28 28 27 25 23 21 20 20 18 17 16 15 14 14 14 14 14 14 15 15 15 14 14 13 12 12 11 10 9 9 8 8 8 8 9 9 9 8 9 10 11 12 12 12 12 11 11 11 12 13 15 17 16 15 15 15 16 15 15 14 13 13 14 14 13 13
35 37 36 34 33 29 26 27 27 24 23 23 22 21 21 22 24 26 27 29 30 29 26 25 23 22 21 20 18 17 17 16 16 16 16 15 15 16 16 16 16 15 15 15 15 14 13 12 10 10 9 9 10 10 11 10 9 10 10 11 12 13 13 12 12 11 11 12 12 14 16 15 14 14 15 15 14 13 13 13 13 14 14 12 11
33 36 36 35 33 28 25 27 27 25 24 22 20 19 20 22 24 25 27 29 31 30 28 26 25 24 23 22 20 19 19 18 18 18 17 17 17 17 17 17 17 17 17 17 17 16 15 13 12 11 11 11 11 11 12 11 10 10 11 11 12 12 13 13 12 12 11 12 12 13 13 13 13 13 14 14 13 12 13 13 14 14 14 12 10
35 36 37 36 33 29 27 28 28 25 24 21 19 20 22 24 24 25 26 28 31 30 28 27 26 26 25 24 22 21 21 20 20 19 19 18 18 18 18 18 18 18 19 18 18 18 17 15 14 13 12 12 12 13 13 12 11 12 11 12 12 12 13 13 13 12 12 12 12 11 11 12 12 12 13 14 13 13 14 14 14 13 11 10 10
38 38 38 37 33 30 29 28 28 26 23 20 20 23 25 25 26 26 26 28 30 29 28 27 27 28 27 26 24 23 22 22 21 21 20 20 20 20 19 20 20 19 19 19 19 19 18 16 15 14 13 12 13 14 14 12 12 13 12 12 12 12 13 13 13 12 12 12 11 10 10 10 10 10 12 13 14 14 14 14 13 12 9 8 8
40 38 37 37 33 31 30 28 29 27 23 20 22 24 25 25 26 26 26 26 26 27 27 28 28 28 28 27 26 25 24 23 23 22 22 22 22 21 21 22 22 20 19 19 19 19 18 17 15 15 14 13 14 15 14 13 13 13 12 12 13 13 13 13 12 12 12 11 10 9 9 9 8 8 10 12 14 14 14 13 12 10 8 8 7
39 37 36 35 33 32 29 28 30 27 21 21 23 24 24 24 24 25 26 24 23 24 26 28 28 28 29 29 28 27 26 25 24 24 24 23 23 23 23 24 23 21 20 20 20 20 19 18 16 16 15 14 15 16 15 14 13 13 13 12 13 14 14 13 12 12 12 11 10 9 9 9 8 8 9 11 13 14 13 11 10 8 7 8 8
39 38 35 34 32 30 29 29 30 26 22 22 23 23 23 22 22 23 24 23 21 22 25 27 28 29 31 31 30 29 27 26 25 25 25 24 24 24 25 25 24 23 22 21 21 21 20 19 17 16 16 15 16 16 15 14 14 13 13 12 13 14 14 13 12 12 11 9 9 9 9 9 8 8 9 9 12 13 12 10 8 7 7 8 9
38 38 35 33 31 30 30 31 31 26 23 23 23 22 22 21 21 21 23 24 23 22 24 27 29 31 32 32 32 30 29 28 27 26 25 25 25 25 26 26 25 24 23 22 22 22 21 20 18 17 17 16 16 17 16 15 14 13 13 13 14 15 14 13 12 11 9 8 9 9 9 8 7 7 8 9 11 12 12 10 8 6 6 8 9
37 37 37 33 31 30 31 33 31 26 25 24 22 22 21 19 18 19 21 23 24 23 24 27 30 32 34 34 33 31 30 29 28 27 26 26 25 25 26 26 25 25 24 23 23 23 22 21 20 19 18 18 18 19 18 16 14 13 13 13 15 15 14 13 12 10 8 8 9 9 9 8 7 8 9 9 10 12 10 8 7 7 7 7 9
37 37 36 31 29 32 33 34 31 26 25 25 22 20 18 17 16 16 17 21 24 24 25 27 30 33 35 36 34 32 31 30 29 28 27 26 26 26 26 26 25 24 24 24 24 24 24 23 22 21 20 19 19 20 19 16 14 14 14 14 15 16 14 12 11 9 9 9 8 7 8 8 8 10 10 9 9 10 8 6 6 8 8 8 7
40 38 35 29 29 32 34 33 30 27 27 25 21 18 16 15 14 13 14 17 22 25 26 28 29 33 36 36 34 33 32 30 29 28 28 27 26 26 26 25 25 24 24 24 24 25 24 24 24 23 22 21 21 20 19 18 16 16 17 15 15 15 13 12 10 8 8 8 7 7 7 7 8 9 9 9 10 9 7 5 6 8 9 8 6
40 39 35 29 29 32 34 33 30 28 27 25 21 18 17 15 14 14 15 16 19 22 26 28 30 34 37 36 34 33 32 30 30 29 28 27 27 27 26 26 25 25 24 23 23 24 24 25 25 25 24 23 22 21 20 19 19 19 19 17 17 16 13 12 10 9 8 7 7 7 6 7 9 9 8 8 9 8 6 6 7 8 8 7 5
40 40 36 31 31 33 35 33 31 29 28 26 22 20 18 17 16 16 17 17 16 19 24 27 29 31 33 34 33 32 31 30 30 29 28 27 27 27 26 26 26 25 23 22 22 22 23 24 25 25 24 23 22 21 21 21 20 19 18 17 20 19 12 10 10 9 9 8 8 7 7 8 10 9 8 7 6 7 7 6 8 9 7 5 4
42 42 36 32 33 34 34 34 31 30 29 27 23 21 19 18 18 18 19 18 17 19 23 25 27 28 28 31 32 31 31 30 30 29 28 27 27 27 27 27 27 26 23 21 21 20 20 22 23 24 25 24 23 22 21 22 20 19 17 15 19 21 16 11 10 10 9 9 10 9 9 9 9 10 9 7 6 6 7 8 8 8 6 4 4
42 40 35 33 35 35 35 34 32 31 30 27 23 21 19 17 18 20 21 20 19 21 22 22 26 27 28 31 31 30 30 30 30 28 27 26 27 27 27 27 27 26 23 21 21 20 20 20 20 22 23 24 23 21 21 22 21 19 18 16 18 21 19 14 11 11 10 10 11 10 10 9 8 9 9 8 7 6 7 8 8 7 5 4 4
42 38 35 35 37 37 36 34 32 31 30 26 23 19 16 16 18 19 20 19 19 21 22 22 25 27 28 30 30 29 29 29 29 27 26 27 27 26 25 25 25 25 23 22 21 21 20 19 20 21 22 24 23 21 20 22 22 20 18 17 18 19 20 16 13 13 12 10 11 10 10 9 8 8 8 9 8 8 8 8 8 7 5 4 4
40 37 36 37 39 39 36 34 32 31 29 25 20 16 14 16 18 19 19 18 19 22 24 25 26 27 28 29 28 28 28 28 28 26 26 27 26 24 22 21 21 22 23 22 22 22 20 20 21 21 22 23 24 23 22 22 22 21 18 18 19 19 19 18 16 14 13 11 10 10 10 9 8 8 8 8 9 9 9 9 8 7 5 4 4
38 36 38 41 41 40 36 33 31 30 27 22 17 14 13 17 20 20 20 19 19 22 25 26 27 27 27 27 27 26 27 27 26 26 26 26 24 22 21 20 21 22 22 22 21 22 22 22 23 23 23 24 24 24 23 21 21 20 20 19 19 19 18 18 17 16 15 12 11 10 10 9 8 8 8 8 8 9 9 9 8 8 6 6 5
37 37 42 44 43 40 35 33 31 29 25 19 15 13 14 18 21 21 21 20 20 23 26 26 26 26 26 26 26 26 26 26 25 25 25 24 22 22 21 21 21 21 20 20 20 21 22 23 23 24 25 25 25 25 23 22 21 20 20 19 19 19 16 17 18 16 15 15 13 11 10 9 9 8 8 8 8 8 9 9 9 8 8 7 6
39 41 45 46 44 39 35 33 31 27 22 18 15 14 16 19 21 22 21 20 21 24 25 26 26 26 25 26 26 25 25 24 24 24 24 23 21 21 21 21 20 19 18 19 19 20 21 22 23 23 24 25 26 26 24 24 23 21 20 19 19 19 16 17 18 17 16 16 14 12 11 9 9 8 8 8 8 9 9 9 9 9 9 8 7
41 46 49 48 43 38 35 33 30 25 21 18 16 16 18 20 21 21 20 20 22 24 24 26 26 26 26 25 25 24 24 24 25 24 23 21 20 20 20 19 17 17 17 19 19 19 20 21 22 22 23 24 25 25 25 26 25 21 19 18 19 19 16 17 18 18 16 17 16 14 11 10 9 9 9 8 8 9 9 10 10 10 9 9 8
Wind_Direction
206 195 179 166 165 136 118 107 101 96 91 89 86 84 83 80 79 76 75 72 68 67 65 63 62 62 73 103 124 124 114 106 102 100 100 101 103 102 103 103 103 100 97 97 97 96 98 103 106 107 106 105 105 106 106 105 104 102 101 99 98 97 96 96 95 93 90 86 82 79 77 74 72 71 70 70 70 68 65 63 58 52 50 47 39
235 210 190 172 168 149 123 111 103 99 95 92 89 87 84 80 78 77 74 71 68 66 66 65 65 64 69 96 120 129 124 115 109 106 105 105 106 104 105 105 104 101 98 101 101 100 103 107 109 108 107 107 107 108 107 106 104 102 100 99 98 97 96 95 94 92 90 87 82 78 73 70 65 61 60 58 55 52 47 45 42 36 33 29 21
235 220 199 179 171 158 130 116 106 101 98 94 93 90 85 82 79 78 76 72 69 66 67 67 66 66 68 87 113 130 133 126 119 113 113 112 111 108 107 108 106 102 102 105 103 104 108 111 111 109 109 110 111 110 109 106 104 102 102 100 98 95 94 93 91 89 86 83 77 70 63 53 44 35 27 23 20 19 18 17 15 12 10 5 360
219 218 204 188 176 162 139 123 108 103 101 98 95 93 89 84 81 80 78 74 71 68 67 68 68 69 70 80 103 129 140 137 130 123 123 120 115 110 106 107 108 107 107 108 107 109 113 114 112 111 112 113 113 112 110 107 105 104 102 97 93 91 91 91 91 89 84 78 67 53 45 33 21 13 6 2 360 360 0 360 356 353 352 349 346
206 205 206 198 181 166 149 129 113 106 103 102 99 96 92 87 84 81 81 76 73 70 68 68 69 70 72 78 94 118 136 142 140 137 135 129 120 109 107 106 111 113 113 113 112 114 117 117 115 115 115 115 114 111 110 107 106 103 98 95 93 92 90 91 90 89 82 72 54 40 32 20 8 2 355 352 348 345 344 343 342 340 339 338 337
208 196 202 204 189 174 157 138 118 110 107 104 104 100 96 91 88 84 83 79 74 72 69 67 68 71 74 78 86 103 122 139 145 147 144 134 124 113 110 111 116 117 116 116 115 118 121 120 119 120 118 116 113 111 110 107 106 102 100 99 98 98 95 91 88 83 73 63 50 38 31 19 8 1 356 352 345 339 335 334 333 331 331 332 332
212 194 197 205 198 184 162 148 127 116 113 107 107 105 101 95 91 87 84 81 77 74 70 67 66 69 73 77 82 91 106 126 141 146 146 137 127 121 119 121 124 120 118 119 119 124 126 125 124 124 121 116 114 111 109 105 102 100 100 102 103 102 99 94 85 73 59 56 52 39 31 23 12 5 2 359 352 344 336 333 331 330 332 332 335
212 196 194 203 202 191 172 157 136 125 120 113 113 109 106 100 94 90 86 83 79 75 71 67 64 66 69 74 76 82 91 108 127 140 146 143 134 128 127 129 129 125 122 122 124 129 131 130 128 126 123 118 115 111 107 105 101 100 100 101 100 98 94 89 77 58 46 51 51 37 28 23 13 7 4 3 1 355 348 342 338 338 340 340 343
214 201 192 199 203 196 181 167 145 134 128 123 119 115 110 105 99 93 88 83 80 76 72 67 63 63 63 68 70 75 83 93 109 128 142 141 139 132 132 135 135 132 128 129 130 135 137 133 131 128 124 120 117 115 113 111 109 106 102 93 86 81 74 66 53 38 34 41 42 33 26 19 13 7 3 6 6 2 359 353 347 346 346 345 347
219 213 194 194 204 201 187 177 156 142 138 134 127 123 118 112 106 97 92 86 81 76 73 69 63 61 60 62 65 70 75 82 94 108 126 131 136 137 138 141 141 138 134 137 139 141 143 137 133 129 124 123 123 125 125 118 111 105 95 75 60 56 51 41 34 30 23 27 28 22 22 17 12 4 1 8 8 4 4 1 356 352 349 346 345
222 221 200 192 200 203 192 183 167 151 146 144 136 132 128 121 113 104 99 91 84 77 73 70 64 61 59 58 61 66 70 76 84 91 102 115 129 139 145 149 148 143 141 144 147 148 147 142 136 131 126 125 123 121 119 102 89 83 70 48 33 28 33 22 19 29 12 8 14 8 9 10 8 2 0 7 8 5 5 7 6 359 351 346 344
221 223 207 193 198 203 195 188 176 161 155 153 149 143 138 130 122 115 108 99 89 82 75 70 67 62 60 57 57 61 65 71 77 82 87 99 121 140 149 154 152 148 149 149 150 153 149 145 139 134 129 121 113 99 94 84 74 68 51 25 9 2 9 5 6 19 3 353 0 356 359 2 359 356 357 2 6 6 5 9 13 7 358 351 351
217 222 211 196 197 203 197 191 184 170 164 162 160 157 147 140 134 128 120 110 98 90 81 73 69 64 60 56 55 57 61 67 72 78 82 90 110 134 149 154 157 157 158 157 154 155 152 148 143 140 136 126 117 102 88 72 63 61 51 16 358 352 355 357 358 3 353 344 343 342 351 353 350 351 353 357 3 5 6 10 14 13 7 3 5
215 220 213 200 197 201 198 193 190 178 172 172 171 168 158 152 148 142 134 122 109 99 90 79 70 65 62 58 56 56 60 66 69 74 81 88 102 122 144 152 160 166 167 168 161 160 156 151 147 145 142 133 129 125 118 95 53 31 28 9 354 350 351 355 355 354 346 336 332 333 340 345 343 346 349 353 359 3 5 9 13 15 14 15 20
216 220 215 203 198 200 199 195 194 186 180 180 178 177 170 163 160 155 146 136 122 109 99 87 74 66 63 62 60 58 61 67 68 72 79 85 95 107 129 145 159 170 175 178 171 168 161 156 153 150 148 144 143 145 149 153 169 303 337 349 348 346 348 348 349 345 339 336 335 333 334 338 340 344 347 351 357 359 2 6 12 16 18 22 29
218 220 217 208 201 200 200 198 196 191 187 186 185 183 179 174 170 168 159 150 139 122 110 95 81 70 65 67 65 61 62 67 70 70 76 84 92 101 111 125 148 165 176 183 181 179 172 166 163 162 160 162 162 160 159 160 185 212 247 303 334 338 337 333 335 330 329 333 334 335 333 334 339 344 346 349 354 356 358 2 10 15 18 25 29
222 220 218 211 205 202 202 202 199 194 192 191 190 189 187 183 179 176 170 163 157 143 128 108 93 79 69 71 70 66 63 67 71 70 74 83 93 101 103 106 124 147 162 174 184 188 187 184 177 181 176 183 189 171 147 125 132 152 199 226 3 355 335 316 319 318 321 325 325 331 331 333 339 343 345 347 352 353 354 357 3 5 10 20 22
228 223 219 214 208 204 204 205 205 198 194 195 194 194 193 190 185 182 179 174 172 164 151 136 121 104 87 81 77 72 67 67 71 71 72 81 93 100 101 98 101 114 132 145 170 187 192 200 186 185 166 152 141 116 87 71 54 37 30 34 48 37 15 340 330 318 314 319 321 327 328 331 336 340 343 345 348 349 349 352 353 352 356 4 7
230 227 221 217 212 208 206 208 209 204 199 199 198 198 198 195 190 187 185 183 182 177 170 165 161 152 135 107 89 79 73 70 70 73 70 76 91 98 99 96 94 96 102 104 111 125 131 123 102 105 101 99 93 78 61 47 31 21 12 13 15 4 5 1 358 335 316 318 318 319 320 325 331 335 340 343 347 344 344 346 342 339 342 346 353
231 230 224 219 215 211 209 210 212 209 205 203 203 202 203 200 193 192 191 189 188 185 182 181 182 180 179 170 142 104 83 74 69 72 70 69 85 95 97 96 94 93 92 91 90 89 86 86 84 85 79 71 67 52 38 29 19 15 9 6 2 357 0 358 356 342 322 317 312 311 314 320 326 331 336 340 344 338 337 338 329 330 335 335 341
238 231 227 221 218 215 211 213 215 214 211 208 208 207 208 206 199 197 198 196 194 191 189 189 192 192 193 200 197 185 116 87 70 70 70 62 73 95 98 96 97 94 93 91 90 90 84 82 77 70 61 52 48 38 28 22 19 14 9 6 1 357 357 352 346 337 323 315 311 313 316 318 320 326 334 337 337 331 330 332 327 329 333 331 333
246 233 228 222 219 219 214 214 217 218 216 213 212 213 212 213 209 205 204 203 199 196 195 193 198 199 199 205 207 209 197 144 85 64 69 59 56 95 105 100 99 96 95 94 92 90 84 78 73 67 61 54 46 36 28 22 19 13 7 3 1 357 350 342 336 331 324 318 313 314 317 317 316 323 332 332 329 325 326 331 329 326 328 329 330
236 232 229 222 217 218 217 215 217 219 219 217 217 217 217 218 217 214 212 210 207 203 199 198 202 204 204 204 206 213 221 232 231 240 340 51 19 98 118 108 103 102 100 99 95 91 85 79 75 70 63 57 50 41 30 20 13 7 1 354 351 347 341 334 332 330 323 319 315 314 316 314 315 321 326 325 323 320 326 331 326 322 322 325 326
224 230 231 225 216 213 215 215 215 218 219 219 219 220 221 222 223 221 218 216 214 210 204 202 205 209 211 207 205 213 226 240 243 242 247 251 277 266 152 127 112 110 109 106 101 94 88 82 75 68 61 53 46 39 27 17 10 2 354 343 338 334 333 331 330 329 323 318 315 314 314 312 314 319 321 322 319 318 326 326 320 319 319 317 319
218 227 238 232 218 211 212 213 213 216 218 220 221 222 224 226 227 226 223 221 221 217 211 207 207 210 215 214 209 213 226 240 245 243 245 250 254 260 237 187 151 133 129 123 116 106 97 87 76 63 52 40 30 24 15 10 3 358 349 337 332 330 330 330 329 326 320 316 313 312 312 312 314 316 319 320 316 317 323 320 315 318 316 313 316
212 222 242 238 222 215 214 214 212 213 216 218 221 223 225 228 230 230 228 226 226 223 216 211 211 212 216 219 217 217 226 239 244 242 244 249 249 251 251 239 220 199 185 170 157 141 125 104 85 62 36 11 354 348 347 349 347 343 339 335 331 328 327 327 327 325 320 316 310 308 309 311 312 314 317 316 314 317 321 319 315 315 315 315 318
213 224 243 237 224 221 219 218 213 212 215 218 220 222 225 229 232 233 233 231 229 227 220 215 215 217 220 222 223 224 228 237 242 240 242 247 249 249 252 252 244 235 230 224 221 222 224 236 253 277 315 317 314 316 321 327 329 329 328 331 329 324 322 319 322 323 319 315 309 308 308 308 310 312 313 314 316 318 320 320 317 317 318 319 323
216 228 239 230 224 226 224 222 216 213 216 219 220 220 224 228 231 234 235 235 232 228 224 219 219 222 224 224 225 228 229 234 239 239 241 245 248 249 251 254 252 248 246 245 243 243 250 259 264 268 272 282 292 298 306 311 314 318 322 326 326 322 320 317 318 320 318 316 312 309 307 307 309 310 312 315 317 318 320 321 320 320 321 322 327
222 227 230 224 224 227 227 225 218 215 218 220 221 220 223 227 231 233 235 237 235 230 226 223 222 225 228 227 227 229 231 233 236 238 239 242 247 248 250 253 255 254 253 254 253 252 255 262 267 269 269 272 281 288 295 302 305 310 316 321 323 321 319 317 316 318 317 315 311 307 306 307 308 308 311 315 317 319 322 321 321 322 324 327 330
224 223 222 221 223 228 230 228 219 216 218 219 219 219 223 229 232 234 236 238 236 231 228 225 223 227 230 230 229 230 231 233 235 237 238 241 245 248 250 252 256 256 256 258 258 258 259 263 269 271 272 273 278 285 289 296 300 302 308 315 320 318 316 315 314 314 314 313 309 304 304 307 308 309 311 315 318 322 324 322 324 326 326 330 331
224 220 217 219 224 229 230 226 220 215 214 213 214 220 226 233 235 236 237 238 237 233 230 226 223 227 231 232 232 231 231 233 235 238 239 241 244 248 250 252 255 256 256 257 258 260 261 265 270 272 274 275 279 283 285 292 295 296 302 311 316 316 314 315 313 311 310 309 305 301 302 306 308 311 313 315 318 324 324 325 329 328 325 329 329
222 218 215 218 224 227 228 224 219 213 210 209 213 224 232 236 237 237 238 238 237 235 232 226 223 227 230 232 233 232 232 233 236 239 241 242 243 246 249 251 253 255 255 256 258 261 263 265 268 270 272 275 279 281 284 291 291 290 297 306 313 315 315 314 312 310 308 307 305 301 302 306 309 315 319 319 323 325 324 328 330 325 324 330 327
217 215 215 219 222 226 227 222 216 212 208 209 218 230 236 237 237 238 238 238 238 236 233 226 224 226 229 231 233 233 233 234 236 239 241 243 243 245 248 250 251 252 253 256 258 259 262 265 267 269 269 272 277 279 283 289 288 288 294 302 311 316 313 310 308 309 311 313 309 305 306 307 311 320 321 322 325 322 323 329 327 321 324 331 330
211 213 215 218 221 225 227 220 214 212 209 212 224 232 235 237 238 238 237 236 236 235 232 227 224 226 227 230 232 233 234 235 236 238 241 243 244 245 246 248 249 250 252 255 257 258 261 265 267 268 267 268 272 276 282 286 286 290 295 300 309 315 310 304 305 309 314 316 310 309 309 305 309 314 314 318 319 317 320 325 322 320 323 328 328
210 211 215 218 219 223 226 220 214 212 209 215 225 228 231 236 237 237 236 233 233 232 230 226 224 224 226 228 231 233 234 235 237 239 241 243 244 245 247 248 249 250 252 254 257 260 261 264 267 267 265 265 268 274 279 281 283 289 292 298 308 312 304 300 305 310 315 315 309 309 306 299 300 304 308 312 309 311 318 320 319 320 324 323 315
211 212 214 215 215 220 224 219 213 211 210 216 220 222 226 232 234 234 234 231 230 228 226 224 221 221 223 226 229 232 233 235 237 239 241 243 244 246 247 249 250 250 251 253 257 260 262 264 266 267 266 263 264 270 273 276 280 283 287 294 305 306 299 299 305 311 316 314 307 305 298 292 297 306 311 308 302 308 315 317 319 320 323 323 316
211 211 212 211 211 216 219 215 211 208 209 212 213 216 222 226 229 230 230 228 227 227 224 221 218 218 221 224 227 230 232 234 236 239 240 242 244 246 248 251 251 250 251 253 256 259 262 264 265 266 264 261 262 266 269 273 277 280 284 291 300 299 295 298 306 312 313 305 301 300 291 289 302 312 310 304 304 309 313 316 318 318 322 326 322
207 208 209 209 210 214 214 210 208 207 206 208 210 215 218 221 224 226 227 226 226 226 224 220 217 216 218 222 226 228 230 233 235 239 240 242 244 247 249 252 252 251 252 254 255 258 261 263 264 264 263 260 260 263 268 273 276 278 281 287 292 292 292 297 305 310 306 297 295 293 288 289 301 306 302 305 309 310 314 321 321 322 329 329 325
204 206 207 208 210 210 206 206 207 207 205 206 210 214 216 217 219 221 224 225 226 228 226 221 217 216 216 220 224 226 229 232 235 238 241 243 245 248 251 254 254 254 254 255 255 257 259 261 262 262 262 259 257 262 269 271 273 276 278 284 287 287 288 294 303 305 296 292 292 291 292 294 299 303 309 317 314 312 318 325 322 326 333 330 324
204 207 207 208 209 204 200 203 206 207 206 207 212 216 218 220 218 221 225 226 228 229 228 224 219 216 216 218 221 224 228 231 234 238 241 244 247 250 253 256 257 257 257 256 256 256 257 258 259 259 259 258 257 261 266 268 270 273 272 275 280 282 284 290 298 296 286 288 288 290 293 296 301 307 317 322 310 310 318 319 316 321 328 331 326
206 209 208 207 207 201 198 201 205 208 209 211 215 221 226 227 228 231 231 232 232 231 229 225 221 218 216 217 219 222 226 230 233 237 241 244 248 251 255 258 260 260 258 257 257 256 256 256 257 257 256 256 257 258 262 267 269 271 273 273 274 277 280 287 292 286 283 286 282 281 283 288 301 310 320 319 305 306 313 310 311 320 328 332 327
206 209 209 206 204 199 197 200 206 209 210 213 219 227 232 233 237 238 237 237 236 236 232 227 224 220 216 215 218 222 225 229 233 237 241 244 248 253 257 260 261 261 260 259 258 258 257 256 256 256 256 256 257 259 265 270 270 275 285 290 284 276 275 285 288 279 277 278 276 275 272 285 304 316 319 307 298 303 307 309 316 322 325 323 322
204 208 208 206 202 198 197 200 206 208 211 216 224 232 233 233 236 235 237 238 238 238 233 229 226 223 219 216 216 221 225 229 233 236 240 244 249 253 257 259 261 262 262 262 261 261 259 258 256 255 255 255 257 262 267 270 271 276 286 292 291 285 281 286 284 276 274 275 278 276 274 293 311 317 309 293 293 303 307 311 314 317 319 316 324
203 207 207 204 201 196 197 202 206 209 212 219 228 232 229 232 235 231 230 231 234 233 228 228 225 219 219 217 217 221 224 228 233 237 240 245 249 253 256 259 261 263 264 264 264 263 261 261 259 254 254 255 258 263 265 267 271 275 277 281 289 290 287 286 281 274 274 277 281 284 288 302 314 314 309 303 300 299 301 306 309 316 321 319 325
205 208 206 203 199 195 197 202 206 209 215 221 228 228 227 235 238 231 226 226 229 225 221 223 218 212 214 215 216 220 223 228 233 237 241 245 249 253 257 260 262 264 264 265 265 264 264 263 260 256 254 255 257 260 263 267 270 271 271 273 282 287 284 279 275 270 266 269 277 284 292 303 314 316 313 309 300 295 297 302 313 323 320 310 317
208 210 206 201 197 195 197 202 205 211 217 222 225 224 228 239 237 230 228 229 232 223 214 212 210 209 211 212 215 219 223 228 233 237 242 245 249 253 256 259 262 265 265 266 266 267 266 264 261 257 254 254 255 256 260 266 268 268 270 270 275 284 282 274 269 266 263 265 272 281 290 301 313 315 310 305 301 301 302 306 319 325 316 310 315
211 212 204 198 195 195 198 201 205 212 218 221 220 220 232 239 231 226 227 230 232 222 209 205 205 207 210 211 215 218 222 229 233 237 242 246 250 251 253 256 260 265 267 268 267 268 267 264 262 257 253 254 254 255 257 260 263 264 266 266 269 280 282 274 267 265 267 266 267 277 290 301 311 312 307 304 303 304 306 311 317 317 315 314 315
213 210 202 196 194 195 197 200 206 213 217 215 214 220 236 236 226 224 225 225 227 218 209 206 205 207 209 211 214 218 223 228 232 237 241 245 247 248 251 255 260 265 267 268 269 270 269 267 265 260 257 255 253 254 255 255 258 259 261 263 266 275 279 275 266 261 266 267 265 277 290 299 307 310 305 298 294 296 298 302 305 307 310 311 312
212 206 199 195 194 195 195 199 207 212 210 206 209 223 236 232 223 223 224 222 220 214 209 208 207 209 209 211 215 218 223 228 232 237 240 243 244 246 252 256 261 264 267 271 273 274 272 269 266 262 259 256 253 252 250 249 252 254 258 258 262 271 276 276 268 257 261 266 267 276 285 294 303 306 303 295 289 289 290 295 300 301 302 303 306
208 200 195 193 193 193 194 201 207 206 201 200 209 223 232 229 223 222 223 220 214 210 208 208 208 208 209 211 216 219 223 227 232 236 238 239 242 247 252 256 260 265 272 280 282 280 275 269 265 261 259 256 253 250 246 246 250 252 254 253 258 267 273 279 268 251 255 264 264 270 278 289 298 301 302 296 289 286 287 292 295 295 296 297 300
204 195 191 191 191 191 195 201 202 198 195 200 211 222 228 226 222 222 221 216 209 206 205 205 205 207 208 211 215 219 222 226 230 233 235 238 243 247 250 254 260 268 278 286 288 284 278 271 266 262 260 256 252 249 248 250 251 252 255 253 256 262 269 277 262 241 248 261 260 265 272 282 293 297 300 295 286 284 285 289 292 295 296 296 297
Height
3176 3176 3176 3176 3177 3177 3176 3175 3175 3175 3175 3175 3176 3177 3177 3177 3177 3178 3178 3178 3178 3178 3179 3179 3179 3179 3179 3179 3179 3179 3179 3179 3179 3179 3179 3180 3180 3180 3180 3180 3180 3180 3180 3180 3180 3180 3180 3180 3180 3180 3180 3180 3180 3180 3180 3180 3181 3181 3181 3180 3180 3180 3180 3180 3180 3180 3180 3180 3181 3181 3181 3180 3180 3180 3179 3179 3179 3178 3178 3178 3177 3177 3176 3176 3176
3176 3176 3176 3176 3176 3177 3176 3176 3175 3175 3176 3176 3176 3177 3178 3178 3178 3178 3179 3179 3179 3179 3179 3180 3180 3180 3180 3179 3180 3180 3180 3180 3180 3180 3180 3180 3181 3181 3181 3181 3181 3181 3181 3181 3181 3181 3181 3181 3181 3181 3181 3181 3181 3181 3181 3181 3182 3182 3182 3181 3181 3181 3181 3181 3181 3181 3181 3181 3181 3181 3181 3181 3181 3180 3180 3180 3179 3179 3178 3178 3178 3177 3177 3177 3176
3175 3176 3176 3176 3176 3177 3177 3176 3176 3176 3176 3177 3177 3178 3178 3179 3179 3179 3179 3180 3180 3180 3180 3180 3181 3180 3180 3180 3180 3180 3180 3180 3180 3180 3181 3181 3182 3182 3182 3182 3182 3182 3182 3181 3181 3181 3182 3182 3182 3182 3182 3182 3182 3182 3182 3182 3182 3183 3182 3182 3182 3182 3182 3182 3182 3182 3182 3182 3182 3182 3182 3182 3182 3181 3181 3180 3180 3179 3179 3178 3178 3178 3177 3177 3177
3174 3175 3176 3176 3176 3177 3177 3177 3176 3176 3177 3177 3178 3178 3179 3180 3180 3180 3180 3181 3181 3181 3181 3181 3181 3181 3181 3181 3181 3181 3181 3181 3181 3181 3182 3182 3183 3183 3183 3183 3183 3183 3183 3182 3182 3182 3182 3183 3183 3183 3183 3183 3183 3183 3183 3183 3183 3183 3183 3183 3182 3183 3183 3183 3182 3182 3182 3182 3183 3183 3183 3183 3182 3182 3182 3181 3180 3180 3179 3179 3178 3178 3178 3177 3177
3173 3174 3176 3176 3176 3177 3177 3177 3177 3177 3178 3178 3178 3179 3180 3180 3181 3181 3181 3181 3182 3182 3182 3182 3182 3182 3182 3182 3182 3182 3182 3182 3182 3182 3182 3183 3183 3183 3183 3183 3183 3184 3183 3183 3183 3183 3183 3183 3183 3183 3184 3184 3184 3184 3184 3184 3184 3184 3184 3183 3183 3183 3184 3184 3183 3183 3183 3183 3183 3184 3184 3183 3183 3183 3182 3181 3181 3180 3179 3179 3178 3178 3177 3177 3176
3173 3174 3175 3176 3177 3177 3177 3177 3177 3177 3178 3179 3179 3180 3180 3181 3182 3182 3182 3182 3183 3183 3183 3183 3183 3183 3183 3182 3182 3182 3182 3182 3182 3183 3183 3184 3184 3184 3184 3184 3184 3184 3184 3184 3184 3184 3184 3184 3184 3184 3185 3185 3185 3185 3185 3185 3185 3185 3185 3185 3184 3185 3185 3185 3185 3184 3184 3184 3184 3184 3184 3184 3184 3183 3182 3182 3181 3180 3180 3179 3178 3178 3177 3176 3176
3173 3173 3175 3176 3177 3177 3177 3178 3177 3178 3179 3179 3180 3180 3181 3182 3182 3183 3183 3183 3183 3184 3184 3184 3184 3184 3183 3183 3183 3183 3183 3183 3183 3183 3184 3184 3184 3184 3185 3185 3185 3185 3185 3185 3185 3185 3185 3185 3185 3185 3185 3186 3186 3186 3186 3186 3186 3186 3186 3186 3186 3186 3186 3186 3186 3185 3185 3185 3185 3185 3185 3185 3184 3184 3183 3182 3181 3180 3180 3179 3178 3177 3177 3176 3175
3172 3173 3174 3176 3177 3178 3178 3178 3178 3178 3179 3180 3180 3181 3182 3182 3183 3183 3184 3184 3184 3184 3184 3185 3185 3184 3184 3184 3184 3183 3183 3183 3184 3184 3184 3185 3185 3185 3185 3185 3185 3186 3186 3186 3186 3186 3186 3186 3186 3186 3186 3187 3187 3187 3187 3187 3187 3187 3188 3188 3187 3187 3187 3187 3187 3186 3186 3186 3186 3186 3186 3186 3185 3184 3183 3183 3181 3181 3180 3179 3178 3177 3177 3176 3175
3172 3172 3173 3175 3177 3178 3178 3178 3178 3178 3179 3180 3180 3181 3182 3183 3183 3184 3184 3184 3185 3185 3185 3185 3185 3185 3185 3185 3184 3184 3184 3184 3184 3184 3185 3185 3185 3185 3186 3186 3186 3186 3186 3186 3187 3187 3187 3187 3187 3187 3187 3187 3188 3188 3188 3188 3188 3188 3188 3189 3188 3188 3188 3188 3188 3188 3187 3187 3187 3187 3187 3186 3185 3185 3184 3183 3182 3181 3180 3180 3179 3178 3177 3176 3175
3171 3172 3173 3174 3176 3177 3178 3178 3178 3178 3179 3180 3181 3182 3182 3183 3183 3184 3184 3185 3185 3185 3186 3186 3186 3186 3185 3185 3185 3185 3184 3184 3185 3185 3185 3185 3185 3186 3186 3186 3187 3187 3187 3187 3187 3188 3188 3188 3188 3188 3188 3188 3188 3189 3189 3189 3189 3189 3189 3189 3189 3189 3188 3188 3188 3188 3189 3188 3188 3187 3187 3187 3186 3185 3185 3184 3183 3182 3181 3180 3179 3178 3177 3176 3175
3171 3172 3173 3174 3176 3177 3178 3178 3178 3178 3179 3180 3181 3182 3183 3183 3184 3184 3185 3185 3185 3186 3186 3186 3186 3186 3186 3186 3186 3185 3185 3185 3185 3185 3185 3186 3186 3186 3187 3187 3187 3187 3188 3188 3188 3188 3188 3188 3188 3189 3189 3189 3189 3189 3189 3189 3189 3189 3190 3190 3190 3190 3189 3189 3189 3189 3189 3189 3188 3188 3187 3187 3187 3186 3185 3184 3183 3183 3181 3180 3179 3178 3177 3176 3175
3170 3171 3172 3173 3175 3176 3177 3178 3178 3178 3179 3180 3181 3182 3183 3183 3184 3185 3185 3185 3186 3186 3187 3187 3187 3187 3187 3186 3186 3186 3186 3186 3185 3186 3186 3186 3186 3187 3187 3187 3188 3188 3188 3188 3188 3189 3189 3189 3189 3189 3189 3189 3189 3189 3190 3190 3190 3190 3190 3191 3191 3190 3190 3190 3189 3189 3189 3189 3189 3188 3188 3187 3187 3186 3185 3184 3184 3183 3182 3180 3179 3178 3177 3176 3176
3169 3170 3171 3172 3174 3176 3177 3177 3178 3178 3179 3180 3181 3182 3182 3183 3184 3184 3185 3185 3186 3186 3187 3187 3187 3187 3187 3187 3187 3187 3187 3186 3186 3186 3186 3186 3187 3187 3188 3188 3188 3188 3189 3189 3189 3189 3189 3189 3190 3190 3190 3190 3190 3190 3190 3190 3191 3190 3190 3191 3191 3191 3191 3190 3190 3190 3190 3189 3189 3189 3188 3188 3187 3187 3186 3185 3184 3183 3182 3180 3179 3178 3177 3176 3175
3167 3169 3170 3171 3173 3175 3176 3177 3177 3178 3179 3180 3180 3181 3182 3183 3184 3184 3185 3185 3186 3186 3187 3187 3188 3188 3188 3188 3188 3188 3187 3187 3187 3187 3187 3187 3187 3188 3188 3188 3189 3189 3189 3189 3189 3190 3190 3190 3190 3190 3191 3191 3191 3191 3191 3191 3191 3191 3191 3191 3191 3191 3191 3191 3190 3190 3190 3190 3189 3189 3188 3188 3187 3187 3186 3185 3184 3183 3182 3180 3179 3178 3177 3176 3175
3167 3168 3170 3171 3172 3174 3175 3176 3177 3177 3178 3179 3180 3181 3181 3182 3184 3184 3185 3185 3186 3186 3187 3187 3188 3188 3188 3189 3189 3188 3188 3188 3187 3187 3187 3187 3188 3188 3188 3189 3189 3189 3189 3190 3190 3190 3190 3190 3191 3191 3191 3191 3191 3191 3191 3191 3192 3191 3191 3191 3191 3191 3191 3190 3190 3190 3190 3190 3189 3189 3188 3188 3187 3186 3186 3185 3184 3183 3181 3180 3179 3178 3177 3176 3175
3166 3167 3169 3170 3171 3173 3174 3175 3176 3176 3177 3178 3179 3180 3181 3182 3183 3184 3185 3185 3186 3186 3187 3188 3188 3188 3189 3189 3189 3189 3189 3188 3188 3188 3188 3188 3188 3188 3189 3189 3189 3189 3190 3190 3190 3190 3190 3191 3191 3191 3191 3192 3192 3192 3192 3192 3192 3192 3191 3191 3191 3191 3191 3190 3190 3190 3190 3189 3189 3189 3188 3187 3187 3186 3185 3185 3184 3182 3181 3180 3179 3178 3177 3176 3175
3165 3166 3168 3169 3170 3172 3173 3174 3174 3175 3176 3177 3178 3179 3180 3181 3183 3184 3184 3185 3185 3186 3187 3187 3188 3189 3189 3190 3189 3189 3189 3189 3189 3188 3188 3188 3188 3188 3189 3189 3189 3190 3190 3190 3190 3190 3191 3191 3191 3191 3192 3192 3192 3192 3191 3191 3191 3192 3192 3191 3191 3191 3191 3190 3190 3190 3189 3189 3189 3188 3188 3187 3186 3186 3185 3185 3183 3182 3181 3180 3179 3178 3177 3176 3175
3164 3165 3167 3168 3170 3171 3172 3173 3173 3174 3175 3176 3177 3178 3180 3181 3182 3183 3183 3184 3185 3186 3186 3187 3188 3189 3189 3190 3190 3189 3189 3189 3189 3189 3189 3189 3189 3189 3189 3189 3190 3190 3190 3190 3190 3190 3191 3191 3191 3191 3192 3192 3192 3192 3191 3191 3191 3191 3191 3191 3191 3190 3190 3190 3190 3189 3189 3189 3188 3188 3187 3187 3186 3186 3185 3184 3183 3182 3181 3179 3178 3178 3177 3176 3175
3163 3164 3165 3167 3168 3169 3170 3171 3172 3173 3174 3175 3176 3177 3179 3180 3181 3182 3183 3184 3185 3185 3186 3187 3188 3189 3189 3190 3190 3190 3190 3190 3190 3190 3190 3190 3189 3189 3189 3190 3190 3190 3190 3190 3190 3190 3191 3191 3191 3191 3191 3192 3192 3191 3191 3191 3191 3191 3191 3190 3190 3190 3190 3190 3190 3189 3189 3189 3188 3188 3187 3186 3186 3185 3185 3184 3183 3182 3181 3179 3178 3177 3177 3176 3175
3162 3163 3164 3166 3167 3168 3169 3170 3171 3172 3173 3174 3175 3177 3178 3179 3180 3181 3182 3183 3184 3185 3185 3186 3187 3188 3189 3189 3190 3190 3190 3190 3190 3190 3190 3190 3190 3190 3189 3190 3190 3190 3190 3190 3190 3191 3191 3191 3191 3191 3191 3191 3192 3191 3191 3191 3191 3191 3190 3190 3190 3190 3190 3190 3189 3189 3189 3189 3188 3188 3187 3186 3185 3185 3185 3184 3183 3182 3180 3179 3177 3177 3176 3175 3174
3161 3162 3163 3164 3166 3167 3168 3169 3170 3172 3173 3174 3175 3176 3177 3178 3179 3180 3181 3182 3183 3184 3185 3186 3187 3188 3188 3189 3190 3190 3190 3190 3190 3190 3190 3190 3190 3190 3190 3190 3190 3190 3190 3190 3191 3191 3191 3191 3191 3191 3191 3191 3192 3192 3191 3191 3191 3191 3191 3190 3190 3190 3190 3190 3189 3189 3189 3188 3188 3187 3186 3186 3185 3184 3184 3183 3182 3181 3180 3178 3177 3176 3176 3174 3174
3159 3160 3161 3163 3165 3166 3167 3168 3169 3171 3172 3173 3174 3175 3176 3177 3178 3179 3180 3181 3182 3183 3184 3185 3186 3187 3188 3188 3189 3190 3190 3190 3190 3191 3191 3191 3191 3190 3190 3190 3190 3190 3190 3191 3191 3191 3191 3191 3191 3191 3191 3192 3192 3192 3191 3191 3191 3191 3191 3191 3190 3190 3190 3190 3189 3189 3188 3188 3187 3186 3186 3185 3185 3184 3183 3182 3182 3181 3179 3178 3176 3175 3175 3174 3173
3157 3158 3160 3161 3163 3165 3166 3167 3168 3170 3171 3172 3173 3174 3175 3176 3177 3178 3179 3180 3181 3182 3183 3184 3185 3186 3187 3187 3188 3189 3190 3190 3191 3191 3191 3190 3191 3190 3190 3190 3190 3190 3190 3191 3191 3191 3191 3191 3192 3192 3192 3192 3192 3192 3191 3191 3191 3191 3191 3190 3190 3190 3190 3190 3189 3189 3188 3187 3187 3186 3185 3185 3184 3183 3183 3182 3181 3180 3179 3178 3176 3175 3174 3173 3172
3156 3157 3159 3160 3162 3163 3164 3165 3166 3168 3169 3171 3172 3173 3174 3175 3176 3178 3179 3180 3181 3182 3183 3184 3185 3186 3186 3187 3187 3188 3189 3190 3190 3191 3191 3190 3191 3191 3190 3190 3190 3190 3190 3191 3191 3191 3191 3191 3192 3192 3192 3192 3192 3192 3192 3192 3191 3191 3191 3191 3190 3190 3190 3189 3189 3188 3188 3187 3186 3185 3184 3184 3183 3183 3182 3181 3180 3179 3178 3177 3175 3174 3173 3172 3171
3155 3156 3158 3159 3160 3161 3162 3163 3165 3166 3168 3169 3170 3172 3173 3174 3175 3177 3178 3179 3180 3181 3182 3183 3184 3185 3186 3186 3186 3187 3188 3189 3190 3190 3190 3190 3190 3190 3190 3190 3190 3190 3190 3190 3191 3191 3191 3192 3192 3192 3192 3192 3192 3192 3192 3192 3192 3192 3191 3191 3190 3190 3189 3189 3188 3188 3187 3186 3185 3184 3183 3183 3182 3182 3181 3180 3179 3178 3177 3176 3174 3173 3172 3171 3170
3155 3155 3156 3157 3158 3160 3161 3161 3163 3164 3166 3167 3169 3170 3172 3173 3174 3175 3177 3178 3179 3180 3182 3183 3183 3184 3185 3186 3186 3186 3187 3188 3189 3190 3190 3190 3190 3190 3190 3190 3189 3189 3190 3190 3190 3191 3191 3191 3192 3192 3192 3192 3192 3192 3192 3192 3192 3191 3191 3191 3190 3190 3189 3189 3188 3188 3187 3186 3184 3183 3182 3182 3181 3181 3180 3179 3178 3177 3176 3175 3174 3173 3172 3170 3169
3154 3155 3154 3155 3156 3158 3159 3160 3161 3163 3164 3166 3167 3169 3170 3172 3173 3174 3175 3176 3178 3179 3181 3182 3183 3184 3184 3185 3185 3185 3186 3187 3188 3189 3189 3189 3189 3189 3189 3189 3189 3189 3189 3190 3190 3190 3191 3191 3191 3192 3192 3192 3192 3192 3192 3192 3192 3191 3191 3190 3190 3190 3189 3188 3188 3187 3186 3185 3184 3182 3181 3181 3180 3180 3179 3178 3177 3175 3175 3174 3173 3172 3171 3169 3168
3151 3152 3152 3153 3155 3156 3158 3159 3160 3161 3163 3164 3166 3167 3168 3170 3171 3172 3174 3175 3176 3178 3180 3182 3182 3183 3183 3184 3184 3185 3185 3186 3187 3188 3188 3188 3189 3188 3188 3189 3189 3189 3189 3189 3190 3190 3190 3191 3191 3191 3192 3192 3192 3192 3192 3192 3191 3191 3190 3190 3190 3189 3188 3188 3187 3187 3186 3185 3183 3181 3181 3180 3179 3179 3178 3177 3176 3174 3173 3173 3172 3171 3169 3168 3167
3147 3149 3149 3151 3152 3154 3156 3157 3159 3160 3162 3163 3164 3165 3167 3168 3169 3170 3172 3173 3175 3177 3179 3181 3181 3182 3182 3183 3183 3184 3184 3185 3186 3186 3187 3188 3188 3188 3188 3188 3188 3188 3189 3189 3189 3190 3190 3190 3191 3191 3191 3192 3191 3191 3191 3191 3191 3190 3190 3190 3189 3188 3188 3187 3187 3186 3185 3185 3183 3181 3180 3179 3178 3178 3177 3176 3175 3173 3172 3172 3171 3170 3168 3167 3165
3142 3144 3146 3148 3149 3152 3154 3156 3157 3159 3160 3161 3163 3164 3165 3166 3167 3169 3170 3172 3174 3176 3178 3179 3180 3181 3181 3181 3182 3182 3183 3184 3184 3185 3186 3186 3187 3187 3187 3187 3187 3188 3188 3188 3189 3189 3189 3190 3190 3191 3191 3191 3191 3191 3191 3191 3191 3190 3190 3189 3189 3188 3187 3186 3186 3185 3185 3184 3183 3181 3179 3178 3177 3177 3176 3175 3173 3172 3171 3170 3170 3168 3167 3166 3164
3138 3140 3143 3145 3146 3149 3152 3154 3156 3157 3159 3160 3161 3162 3164 3165 3166 3167 3168 3170 3172 3174 3176 3177 3179 3179 3180 3180 3180 3181 3182 3182 3183 3183 3184 3185 3186 3186 3186 3186 3187 3187 3187 3188 3188 3188 3189 3189 3190 3190 3191 3191 3191 3191 3191 3191 3191 3190 3189 3189 3188 3187 3186 3185 3185 3185 3184 3183 3182 3180 3178 3177 3177 3175 3174 3173 3172 3171 3170 3169 3168 3167 3165 3164 3164
3135 3137 3140 3141 3143 3147 3150 3152 3154 3155 3157 3158 3159 3161 3162 3163 3164 3165 3166 3168 3170 3171 3174 3175 3177 3177 3178 3178 3179 3180 3180 3181 3182 3182 3183 3184 3184 3185 3185 3185 3186 3186 3187 3187 3187 3187 3188 3188 3189 3189 3190 3190 3190 3190 3190 3190 3190 3189 3189 3188 3187 3187 3185 3185 3184 3184 3183 3182 3181 3180 3178 3177 3175 3174 3173 3172 3171 3170 3169 3168 3167 3166 3165 3164 3163
3132 3134 3136 3138 3141 3145 3148 3149 3152 3154 3155 3156 3157 3159 3160 3161 3162 3163 3164 3165 3167 3169 3171 3173 3174 3175 3175 3176 3177 3178 3179 3180 3180 3181 3182 3182 3183 3184 3184 3184 3185 3185 3185 3186 3186 3187 3187 3187 3188 3188 3189 3189 3189 3189 3189 3189 3189 3188 3188 3187 3187 3186 3185 3184 3183 3183 3182 3181 3180 3179 3178 3176 3174 3172 3172 3171 3170 3169 3168 3167 3167 3165 3164 3163 3162
3128 3131 3133 3135 3139 3142 3144 3147 3150 3152 3153 3154 3155 3157 3158 3159 3160 3161 3162 3163 3165 3167 3169 3171 3172 3172 3173 3174 3175 3176 3177 3178 3179 3180 3180 3181 3182 3182 3183 3183 3183 3184 3184 3185 3185 3186 3186 3186 3187 3187 3188 3188 3188 3188 3188 3188 3188 3187 3187 3186 3186 3185 3184 3183 3182 3182 3181 3180 3179 3178 3178 3176 3173 3172 3171 3170 3170 3169 3167 3167 3166 3164 3163 3162 3161
3125 3128 3130 3133 3136 3139 3142 3145 3148 3149 3151 3152 3153 3155 3156 3157 3157 3158 3159 3161 3162 3164 3166 3167 3168 3169 3171 3172 3173 3175 3176 3177 3177 3178 3179 3179 3180 3181 3181 3181 3182 3183 3184 3184 3184 3185 3185 3185 3186 3186 3187 3187 3187 3187 3187 3187 3187 3186 3185 3185 3184 3184 3183 3182 3182 3181 3180 3179 3178 3177 3177 3175 3174 3173 3172 3170 3169 3168 3167 3166 3164 3163 3162 3161 3160
3123 3125 3127 3130 3133 3137 3140 3143 3146 3148 3149 3150 3151 3153 3154 3154 3155 3156 3157 3159 3160 3161 3162 3164 3165 3167 3168 3170 3171 3173 3174 3175 3175 3176 3177 3178 3178 3179 3179 3179 3180 3181 3182 3183 3183 3183 3184 3184 3185 3185 3186 3186 3186 3186 3186 3186 3185 3185 3184 3184 3183 3183 3182 3181 3181 3180 3179 3178 3177 3177 3176 3174 3173 3173 3172 3170 3169 3167 3166 3164 3163 3162 3161 3160 3159
3120 3122 3124 3127 3131 3134 3137 3141 3143 3145 3146 3147 3149 3150 3151 3152 3153 3154 3155 3157 3158 3158 3160 3161 3162 3164 3165 3167 3169 3170 3172 3173 3174 3174 3175 3176 3177 3177 3177 3178 3179 3180 3181 3182 3182 3182 3182 3183 3184 3184 3184 3185 3185 3184 3184 3184 3184 3183 3183 3182 3182 3181 3181 3180 3180 3179 3178 3178 3177 3176 3175 3174 3173 3172 3171 3170 3168 3166 3165 3163 3162 3161 3160 3159 3158
3116 3119 3122 3125 3128 3131 3134 3138 3140 3142 3143 3145 3147 3148 3149 3150 3151 3152 3153 3155 3155 3156 3157 3158 3159 3161 3163 3165 3166 3168 3169 3171 3171 3172 3173 3174 3175 3175 3175 3176 3177 3178 3179 3180 3180 3181 3181 3182 3182 3183 3183 3183 3183 3183 3182 3183 3183 3182 3182 3181 3181 3181 3180 3179 3179 3178 3177 3177 3176 3175 3174 3173 3172 3172 3171 3169 3167 3165 3164 3162 3161 3160 3159 3158 3157
3113 3116 3119 3121 3125 3128 3131 3135 3137 3139 3140 3142 3144 3145 3147 3147 3148 3149 3150 3152 3153 3153 3154 3155 3157 3158 3160 3162 3163 3166 3167 3168 3169 3170 3171 3172 3173 3173 3173 3174 3175 3176 3177 3178 3179 3179 3180 3180 3181 3181 3181 3181 3181 3181 3181 3181 3181 3181 3180 3180 3180 3179 3179 3178 3178 3177 3176 3176 3175 3174 3173 3172 3171 3170 3169 3168 3166 3164 3163 3162 3160 3159 3158 3157 3156
3111 3113 3116 3119 3122 3124 3128 3132 3134 3136 3137 3140 3142 3143 3144 3145 3146 3147 3148 3149 3150 3151 3152 3153 3154 3156 3157 3159 3161 3163 3165 3166 3167 3168 3169 3170 3171 3171 3171 3172 3173 3174 3175 3176 3177 3177 3178 3178 3179 3179 3179 3179 3179 3179 3179 3179 3179 3179 3179 3178 3178 3178 3178 3177 3177 3176 3176 3175 3174 3173 3172 3171 3170 3169 3167 3166 3165 3164 3162 3161 3160 3158 3157 3156 3155
3108 3110 3113 3116 3119 3122 3125 3129 3132 3133 3135 3137 3140 3141 3142 3143 3144 3145 3145 3146 3147 3148 3149 3150 3152 3153 3154 3156 3159 3161 3162 3164 3165 3166 3167 3168 3168 3169 3169 3170 3171 3172 3173 3174 3175 3175 3176 3176 3177 3177 3177 3177 3177 3176 3177 3177 3177 3177 3177 3177 3177 3176 3176 3176 3175 3175 3174 3174 3173 3173 3172 3171 3170 3168 3167 3165 3164 3163 3162 3161 3160 3158 3156 3155 3155
3105 3108 3111 3114 3116 3119 3123 3126 3129 3130 3133 3135 3138 3139 3141 3142 3142 3143 3144 3144 3145 3146 3147 3148 3149 3150 3152 3154 3157 3159 3160 3162 3163 3164 3165 3166 3167 3167 3168 3169 3169 3170 3171 3172 3172 3173 3173 3174 3174 3175 3175 3175 3174 3174 3175 3176 3176 3175 3175 3176 3176 3175 3175 3175 3174 3173 3173 3172 3172 3171 3170 3169 3168 3168 3167 3165 3163 3162 3161 3160 3159 3157 3156 3155 3154
3102 3105 3108 3111 3113 3116 3120 3123 3126 3128 3131 3133 3136 3138 3139 3140 3140 3141 3142 3142 3143 3143 3145 3146 3148 3149 3151 3153 3155 3157 3158 3160 3161 3162 3163 3164 3165 3165 3166 3167 3167 3168 3169 3170 3170 3171 3171 3171 3172 3172 3172 3173 3172 3173 3174 3174 3174 3174 3174 3174 3174 3174 3174 3173 3173 3172 3171 3171 3170 3169 3169 3168 3167 3167 3166 3164 3163 3162 3160 3159 3158 3157 3156 3154 3153
3098 3101 3104 3107 3110 3114 3118 3121 3124 3126 3129 3131 3134 3136 3137 3137 3138 3138 3139 3140 3140 3141 3142 3144 3146 3149 3151 3152 3153 3155 3156 3158 3159 3160 3161 3163 3163 3164 3164 3165 3165 3166 3167 3167 3168 3169 3169 3169 3169 3170 3170 3170 3170 3171 3171 3171 3172 3172 3172 3172 3172 3172 3173 3172 3171 3170 3169 3169 3169 3168 3168 3167 3166 3165 3164 3163 3162 3161 3160 3158 3158 3156 3155 3153 3153
3095 3099 3102 3105 3108 3112 3115 3119 3122 3124 3127 3130 3132 3134 3134 3134 3135 3136 3137 3137 3138 3139 3140 3143 3145 3147 3149 3150 3151 3152 3154 3156 3157 3158 3160 3161 3161 3162 3162 3163 3163 3164 3165 3165 3166 3166 3166 3166 3167 3167 3168 3168 3168 3169 3169 3169 3170 3170 3170 3170 3169 3170 3170 3170 3170 3169 3168 3168 3167 3167 3166 3165 3165 3164 3162 3161 3160 3160 3158 3158 3156 3155 3154 3153 3152
3092 3097 3100 3103 3107 3110 3113 3117 3120 3122 3125 3128 3130 3131 3131 3132 3133 3134 3135 3136 3137 3138 3139 3141 3143 3145 3146 3148 3149 3150 3153 3154 3155 3157 3158 3159 3159 3160 3161 3161 3161 3162 3163 3163 3164 3164 3164 3164 3164 3165 3166 3166 3166 3166 3167 3166 3167 3167 3167 3168 3168 3168 3168 3168 3169 3168 3166 3166 3166 3165 3165 3164 3164 3163 3162 3160 3159 3158 3157 3156 3155 3154 3153 3152 3152
3090 3095 3098 3101 3104 3108 3111 3115 3118 3121 3124 3126 3128 3128 3129 3130 3131 3132 3133 3134 3135 3136 3137 3139 3141 3143 3144 3145 3147 3149 3151 3152 3154 3155 3156 3157 3158 3159 3159 3160 3160 3160 3161 3161 3161 3161 3162 3162 3162 3162 3163 3163 3163 3164 3164 3164 3163 3164 3164 3165 3165 3165 3166 3166 3167 3167 3165 3164 3164 3164 3163 3163 3162 3161 3160 3159 3158 3156 3155 3154 3154 3153 3153 3152 3151
3088 3092 3095 3098 3102 3106 3109 3113 3116 3119 3122 3124 3125 3126 3127 3128 3129 3130 3131 3132 3133 3134 3136 3137 3139 3141 3142 3144 3146 3148 3150 3151 3152 3154 3154 3155 3156 3157 3158 3158 3158 3158 3159 3159 3159 3159 3159 3159 3159 3160 3160 3160 3160 3161 3161 3161 3161 3161 3161 3161 3162 3162 3163 3164 3164 3165 3165 3163 3162 3162 3162 3161 3161 3160 3159 3158 3157 3155 3154 3153 3153 3152 3152 3151 3150
3085 3089 3093 3096 3099 3103 3108 3111 3114 3118 3120 3122 3123 3123 3125 3126 3127 3128 3129 3130 3131 3133 3134 3136 3138 3139 3141 3143 3145 3147 3148 3149 3151 3152 3153 3154 3154 3155 3156 3157 3157 3157 3157 3157 3157 3157 3157 3157 3157 3157 3157 3158 3158 3158 3158 3158 3158 3159 3159 3159 3159 3159 3160 3161 3162 3163 3163 3162 3161 3161 3161 3160 3159 3158 3158 3157 3155 3154 3153 3152 3152 3151 3151 3150 3149
3082 3086 3090 3093 3097 3101 3106 3109 3113 3116 3118 3119 3120 3121 3123 3124 3125 3126 3127 3128 3129 3131 3133 3135 3137 3138 3140 3142 3144 3145 3147 3148 3149 3150 3151 3152 3153 3154 3155 3155 3155 3155 3155 3155 3155 3155 3155 3154 3154 3154 3155 3155 3155 3155 3155 3155 3156 3157 3157 3157 3157 3158 3158 3159 3160 3161 3162 3161 3160 3159 3159 3159 3158 3157 3156 3155 3154 3153 3152 3151 3150 3150 3149 3149 3148
3079 3082 3086 3090 3095 3100 3104 3108 3111 3114 3116 3117 3118 3120 3121 3122 3123 3124 3125 3126 3127 3129 3131 3133 3135 3137 3139 3141 3142 3144 3145 3146 3147 3148 3150 3151 3152 3153 3153 3153 3153 3153 3153 3153 3153 3153 3152 3152 3152 3152 3152 3152 3152 3153 3153 3153 3154 3155 3155 3155 3156 3156 3156 3157 3158 3158 3159 3160 3159 3158 3157 3157 3157 3156 3155 3154 3153 3152 3151 3150 3149 3149 3148 3147 3147